Location: Góry Miechowskie
(50.3599°N, 20.1803°E)
Time: 16:50:06
(UTC+00:00)

deb Explorer IX - Pass Details

Date: 16 September 2024
Orbit: 504 x 830 km, 38.7° (Epoch: 04 October)

Event Time Altitude Azimuth Distance (km) Brightness Sun altitude
Rises 17:18:34 0° 207° (SSW) 3,386 ? -5.4°
Reaches altitude 10° 17:22:20 10° 183° (S) 2,479 ? -5.9°
Maximum altitude 17:25:17 14° 153° (SSE) 2,209 ? -6.4°
Drops below altitude 10° 17:28:13 10° 124° (ESE) 2,484 ? -6.9°
Enters shadow 17:29:15 - 116° (ESE) 2,687 ? -7.0°
